RYR85MR LOWW-LPPT

Flight info

Callsign RYR85MR
Flight time N/A
Altitude 34000
Route OSPEN DCT ABRUK DCT SETAL DCT DETSA/N0455F350 DCT GEKBA DCT VAMTU DCT KOLON DCT GANGU DCT PADKO DCT DIVKO DCT MAMES DCT BISBA DCT BGR DCT NENDA DCT BCN DCT ANTON DCT XIKEN DCT OSLAP DCT SALAS DCT RAMON DCT NEXAS DCT DISVU DCT ADUXO N975 CJN/N0342F130 N975 PALIO DCT AKOKI DCT GOTOR DCT TLD DCT NATPA DCT MELON DCT CCS DCT ELVAR DCT UPULO
Aircraft A320/M-SDE3FGHIRWY/LB1

Departure

Time 2026-05-07 13:52
Airport Vienna International Airport (LOWW)

Arrival

Time N/A
Airport Lisbon Humberto Delgado Airport (LPPT)
Time Latitude Longitude Altitude Speed Heading
2026-05-07 13:11 48.12060 16.55300 589 ft 0 kts 296°
2026-05-07 13:47 48.12063 16.55292 588 ft 3 kts 296°
2026-05-07 13:47 48.12065 16.55239 588 ft 6 kts 242°
2026-05-07 13:47 48.12021 16.55194 588 ft 8 kts 206°
2026-05-07 13:48 48.11954 16.55187 589 ft 11 kts 178°
2026-05-07 13:48 48.11884 16.55210 589 ft 11 kts 122°
2026-05-07 13:48 48.11849 16.55316 589 ft 11 kts 117°
2026-05-07 13:48 48.11811 16.55427 590 ft 12 kts 117°
2026-05-07 13:49 48.11773 16.55539 590 ft 12 kts 117°
2026-05-07 13:49 48.11734 16.55650 591 ft 12 kts 117°
2026-05-07 13:49 48.11698 16.55768 592 ft 13 kts 114°
2026-05-07 13:49 48.11654 16.55909 593 ft 17 kts 115°
2026-05-07 13:50 48.11599 16.56080 595 ft 13 kts 117°
2026-05-07 13:50 48.11528 16.56123 595 ft 4 kts 213°
2026-05-07 13:50 48.11510 16.56092 595 ft 7 kts 248°
2026-05-07 13:50 48.11501 16.56004 595 ft 9 kts 266°
2026-05-07 13:51 48.11495 16.55861 594 ft 18 kts 266°
2026-05-07 13:51 48.11502 16.55732 593 ft 0 kts 295°
2026-05-07 13:51 48.11507 16.55716 593 ft 16 kts 295°
2026-05-07 13:51 48.11667 16.55221 590 ft 88 kts 295°
2026-05-07 13:52 48.12033 16.54107 586 ft 148 kts 296°
2026-05-07 13:52 48.12484 16.52536 900 ft 169 kts 286°
2026-05-07 13:52 48.12709 16.50842 1507 ft 167 kts 268°
2026-05-07 13:52 48.12342 16.49252 1972 ft 168 kts 223°
2026-05-07 13:53 48.11290 16.48511 2384 ft 173 kts 194°
2026-05-07 13:53 48.10057 16.48106 2678 ft 188 kts 194°
2026-05-07 13:53 48.08756 16.47596 2973 ft 202 kts 199°
2026-05-07 13:53 48.07427 16.46709 3269 ft 217 kts 214°
2026-05-07 13:54 48.06163 16.45264 3522 ft 237 kts 222°
2026-05-07 13:54 48.04879 16.43587 3884 ft 254 kts 223°
2026-05-07 13:54 48.03535 16.41801 4319 ft 267 kts 223°
2026-05-07 13:54 48.02133 16.39952 5015 ft 271 kts 223°
2026-05-07 13:55 48.00712 16.38089 5749 ft 272 kts 223°
2026-05-07 13:55 47.99288 16.36226 6456 ft 274 kts 223°
2026-05-07 13:55 47.97852 16.34351 7180 ft 275 kts 222°
2026-05-07 13:55 47.96495 16.32364 7905 ft 276 kts 232°
2026-05-07 13:56 47.95495 16.29905 8606 ft 277 kts 246°
2026-05-07 13:56 47.94794 16.27180 9286 ft 279 kts 249°
2026-05-07 13:56 47.94149 16.24480 9931 ft 282 kts 249°
2026-05-07 13:56 47.93479 16.21683 10495 ft 289 kts 249°
2026-05-07 13:57 47.92783 16.18812 10785 ft 304 kts 249°
2026-05-07 13:57 47.92039 16.15764 11088 ft 318 kts 249°
2026-05-07 13:57 47.91272 16.12635 11595 ft 324 kts 249°
2026-05-07 13:57 47.90502 16.09509 12242 ft 325 kts 249°
2026-05-07 13:58 47.89719 16.06335 12863 ft 327 kts 249°
2026-05-07 13:58 47.88935 16.03166 13476 ft 328 kts 249°
2026-05-07 13:58 47.88125 15.99909 14072 ft 330 kts 248°
2026-05-07 13:58 47.87049 15.96889 14636 ft 331 kts 234°
2026-05-07 13:59 47.85531 15.94349 15196 ft 332 kts 221°
2026-05-07 13:59 47.83724 15.92207 15773 ft 332 kts 218°
2026-05-07 13:59 47.81888 15.90137 16311 ft 334 kts 217°
2026-05-07 13:59 47.80012 15.88032 16829 ft 336 kts 217°
2026-05-07 14:00 47.78152 15.85943 17332 ft 337 kts 217°
2026-05-07 14:00 47.76280 15.83835 17862 ft 338 kts 217°
2026-05-07 14:00 47.74406 15.81727 18341 ft 339 kts 217°
2026-05-07 14:00 47.72523 15.79609 18806 ft 341 kts 217°
2026-05-07 14:01 47.70632 15.77480 19286 ft 342 kts 217°
2026-05-07 14:01 47.68722 15.75334 19715 ft 344 kts 217°
2026-05-07 14:01 47.66816 15.73191 20188 ft 345 kts 217°
2026-05-07 14:01 47.64869 15.71005 20653 ft 346 kts 217°
2026-05-07 14:02 47.62942 15.68844 21072 ft 348 kts 217°
2026-05-07 14:02 47.61005 15.66672 21491 ft 350 kts 217°
2026-05-07 14:02 47.59067 15.64502 21920 ft 352 kts 217°
2026-05-07 14:02 47.57109 15.62313 22322 ft 353 kts 217°
2026-05-07 14:03 47.55130 15.60101 22706 ft 355 kts 217°
2026-05-07 14:03 47.53168 15.57909 23124 ft 356 kts 217°
2026-05-07 14:03 47.51182 15.55673 23359 ft 362 kts 219°
2026-05-07 14:03 47.49411 15.52960 23597 ft 368 kts 232°
2026-05-07 14:04 47.48099 15.49712 23988 ft 371 kts 243°
2026-05-07 14:04 47.47245 15.46115 24369 ft 375 kts 250°
2026-05-07 14:04 47.46503 15.42353 24727 ft 377 kts 250°
2026-05-07 14:04 47.45778 15.38623 25034 ft 378 kts 250°
2026-05-07 14:05 47.45046 15.34851 25383 ft 379 kts 250°
2026-05-07 14:05 47.44313 15.31097 25720 ft 381 kts 250°
2026-05-07 14:05 47.43572 15.27304 26023 ft 382 kts 250°
2026-05-07 14:05 47.42838 15.23557 26335 ft 383 kts 250°
2026-05-07 14:06 47.42098 15.19795 26615 ft 384 kts 250°
2026-05-07 14:06 47.41339 15.15941 26895 ft 386 kts 250°
2026-05-07 14:06 47.40586 15.12129 27172 ft 387 kts 250°
2026-05-07 14:06 47.39837 15.08343 27427 ft 388 kts 250°
2026-05-07 14:07 47.39078 15.04514 27701 ft 389 kts 249°
2026-05-07 14:07 47.38314 15.00663 27972 ft 390 kts 250°
2026-05-07 14:07 47.37552 14.96839 28233 ft 391 kts 249°
2026-05-07 14:07 47.36783 14.92978 28469 ft 392 kts 249°
2026-05-07 14:08 47.36018 14.89143 28669 ft 394 kts 250°
2026-05-07 14:08 47.35230 14.85212 28901 ft 395 kts 250°
2026-05-07 14:08 47.34452 14.81331 29073 ft 398 kts 250°
2026-05-07 14:08 47.33648 14.77331 29256 ft 399 kts 250°
2026-05-07 14:09 47.32864 14.73438 29519 ft 399 kts 250°
2026-05-07 14:09 47.32079 14.69545 29696 ft 401 kts 250°
2026-05-07 14:09 47.31276 14.65574 29843 ft 402 kts 250°
2026-05-07 14:09 47.30477 14.61622 30042 ft 403 kts 250°
2026-05-07 14:10 47.29671 14.57655 30226 ft 404 kts 250°
2026-05-07 14:10 47.28870 14.53716 30365 ft 406 kts 250°
2026-05-07 14:10 47.28052 14.49700 30541 ft 407 kts 250°
2026-05-07 14:10 47.27239 14.45720 30709 ft 407 kts 250°
2026-05-07 14:11 47.26425 14.41734 30884 ft 406 kts 250°
2026-05-07 14:11 47.25613 14.37776 31085 ft 406 kts 250°
2026-05-07 14:11 47.24796 14.33807 31255 ft 406 kts 250°
2026-05-07 14:11 47.23972 14.29810 31412 ft 406 kts 250°
2026-05-07 14:12 47.23146 14.25805 31564 ft 406 kts 250°
2026-05-07 14:12 47.22335 14.21876 31730 ft 406 kts 250°
2026-05-07 14:12 47.21508 14.17881 31905 ft 406 kts 250°
2026-05-07 14:12 47.20691 14.13946 32054 ft 405 kts 250°
2026-05-07 14:13 47.19858 14.09946 32223 ft 405 kts 250°
2026-05-07 14:13 47.19034 14.05993 32366 ft 406 kts 250°
2026-05-07 14:13 47.18194 14.01977 32447 ft 407 kts 250°
2026-05-07 14:13 47.17354 13.97960 32554 ft 408 kts 250°
2026-05-07 14:14 47.16521 13.93997 32684 ft 408 kts 251°
2026-05-07 14:14 47.15682 13.90007 32803 ft 409 kts 250°
2026-05-07 14:14 47.14840 13.86006 32918 ft 410 kts 250°
2026-05-07 14:15 47.13158 13.78046 33115 ft 411 kts 251°
2026-05-07 14:15 47.12302 13.74011 33227 ft 412 kts 251°
2026-05-07 14:15 47.11452 13.70000 33305 ft 412 kts 251°
2026-05-07 14:16 47.09738 13.61943 33438 ft 413 kts 251°
2026-05-07 14:16 47.08030 13.53958 33567 ft 413 kts 251°
2026-05-07 14:17 47.06301 13.45901 33684 ft 414 kts 251°
2026-05-07 14:17 47.04568 13.37855 33806 ft 415 kts 251°
2026-05-07 14:18 47.02826 13.29805 33920 ft 416 kts 251°
2026-05-07 14:18 47.01073 13.21725 33958 ft 417 kts 251°
2026-05-07 14:19 46.99316 13.13662 33958 ft 417 kts 251°
2026-05-07 14:19 46.97526 13.05472 33961 ft 417 kts 251°
2026-05-07 14:20 46.95760 12.97435 33966 ft 418 kts 251°
2026-05-07 14:20 46.93959 12.89272 33973 ft 418 kts 251°
2026-05-07 14:21 46.92128 12.80998 33975 ft 417 kts 251°
2026-05-07 14:21 46.90315 12.72837 33981 ft 417 kts 251°
2026-05-07 14:22 46.88539 12.64881 33980 ft 417 kts 251°
2026-05-07 14:22 46.86739 12.56844 34008 ft 417 kts 251°
2026-05-07 14:23 46.84945 12.48862 34019 ft 416 kts 251°
2026-05-07 14:23 46.83127 12.40813 34024 ft 416 kts 251°
2026-05-07 14:24 46.81013 12.32978 34029 ft 416 kts 245°
2026-05-07 14:24 46.78349 12.25502 34029 ft 416 kts 240°
2026-05-07 14:25 46.75180 12.18480 34028 ft 416 kts 234°
2026-05-07 14:25 46.71701 12.11781 34027 ft 415 kts 234°
2026-05-07 14:26 46.68203 12.05063 34033 ft 416 kts 234°
2026-05-07 14:26 46.64710 11.98381 34043 ft 416 kts 234°
2026-05-07 14:27 46.61199 11.91685 34040 ft 415 kts 234°
2026-05-07 14:27 46.57723 11.85075 34032 ft 416 kts 234°
2026-05-07 14:28 46.54205 11.78397 34027 ft 416 kts 234°
2026-05-07 14:28 46.50709 11.71782 34019 ft 415 kts 234°
2026-05-07 14:29 46.47199 11.65153 34022 ft 415 kts 235°
2026-05-07 14:29 46.43662 11.58490 34029 ft 414 kts 235°
2026-05-07 14:30 46.40122 11.51839 34028 ft 414 kts 235°
2026-05-07 14:30 46.36619 11.45273 34026 ft 414 kts 235°
2026-05-07 14:31 46.33105 11.38700 34021 ft 413 kts 235°
2026-05-07 14:31 46.29580 11.32126 34016 ft 413 kts 235°
2026-05-07 14:32 46.26058 11.25566 34011 ft 413 kts 234°
2026-05-07 14:32 46.22550 11.19050 34010 ft 413 kts 234°
2026-05-07 14:33 46.19038 11.12542 34009 ft 413 kts 234°
2026-05-07 14:33 46.15516 11.06033 34007 ft 412 kts 235°
2026-05-07 14:34 46.11990 10.99529 34006 ft 412 kts 235°
2026-05-07 14:34 46.08468 10.93051 34002 ft 412 kts 235°
2026-05-07 14:35 46.04935 10.86565 34007 ft 412 kts 235°
2026-05-07 14:35 46.01394 10.80081 33989 ft 412 kts 235°
2026-05-07 14:36 45.97862 10.73625 33989 ft 412 kts 235°
2026-05-07 14:36 45.94338 10.67197 33996 ft 411 kts 235°
2026-05-07 14:37 45.90803 10.60770 33997 ft 411 kts 235°
2026-05-07 14:37 45.85474 10.51105 34009 ft 410 kts 235°
2026-05-07 14:38 45.81958 10.44747 34008 ft 409 kts 235°
2026-05-07 14:38 45.78420 10.38366 34011 ft 409 kts 235°
2026-05-07 14:39 45.74757 10.31772 34009 ft 409 kts 234°
2026-05-07 14:39 45.71222 10.25423 34008 ft 409 kts 234°